Date String (YYYY-MM-DD hh:mm:ss) UTC,Instrument flags,Ambient pressure (hPa),Sample flow (lpm),Bypass flow (lpm),Sample temperature (°C),Ambient temperature (°C),ASC tube jacket temperature (°C),LED temperature (°C),Box temperature (°C),Sample RH (%),Span deviation,Mass concentration (μg/m³),Mass concentration (μg/m³),Mass concentration (μg/m³)
DateTimeUTC,F1_M11,P_M11,Q1_M11,Q2_M11,T1_M11,T2_M11,T3_M11,T4_M11,T5_M11,U1_M11,ZSPAN_M11,X0_M11,X2_M11,X1_M11
2022-11-17 23:00:00,,0832.5,5.00,0.00,22.2,20.9,00.0,31.1,24.1,11.3,0000.0,0008.50,0005.62,0005.39
2022-11-17 23:01:00,,0832.4,5.01,0.00,22.2,20.9,00.0,31.1,24.1,11.2,0000.0,0008.41,0005.62,0005.38
2022-11-17 23:02:00,,0832.5,5.01,0.00,22.2,20.9,00.0,31.1,24.1,11.2,0000.0,0008.11,0005.61,0005.38
2022-11-17 23:03:00,,0832.5,5.00,0.00,22.2,20.9,00.0,31.1,24.1,11.2,0000.0,0008.14,0005.62,0005.39
2022-11-17 23:04:00,,0832.6,4.98,0.00,22.2,20.8,00.0,31.1,24.0,11.2,0000.0,0008.13,0005.62,0005.39
2022-11-17 23:05:00,,0832.5,5.00,0.00,22.2,20.9,00.0,31.1,24.0,11.2,0000.0,0008.01,0005.59,0005.39
2022-11-17 23:06:00,,0832.6,5.02,0.00,22.3,21.5,00.0,31.1,24.2,11.1,0000.0,0007.98,0005.58,0005.38
2022-11-17 23:07:00,,0832.6,4.99,0.00,22.4,22.2,00.0,31.1,24.4,11.1,0000.0,0007.94,0005.56,0005.38
2022-11-17 23:08:00,,0832.6,5.01,0.00,22.4,22.1,00.0,31.1,24.4,11.0,0000.0,0007.91,0005.55,0005.37
2022-11-17 23:09:00,,0832.6,5.00,0.00,22.4,21.8,00.0,31.2,24.4,11.0,0000.0,0007.92,0005.54,0005.37
2022-11-17 23:10:00,,0832.6,4.98,0.00,22.4,21.6,00.0,31.2,24.3,11.1,0000.0,0007.89,0005.54,0005.37
2022-11-17 23:11:00,,0832.7,5.00,0.00,22.4,21.4,00.0,31.2,24.3,11.1,0000.0,0007.87,0005.53,0005.38
2022-11-17 23:12:00,,0832.7,5.01,0.00,22.4,21.3,00.0,31.2,24.3,11.1,0000.0,0007.78,0005.51,0005.38
2022-11-17 23:13:00,,0832.6,5.00,0.00,22.4,21.3,00.0,31.2,24.3,11.1,0000.0,0007.75,0005.50,0005.38
2022-11-17 23:14:00,,0832.7,5.01,0.00,22.4,21.2,00.0,31.2,24.3,11.1,0000.0,0007.78,0005.51,0005.38
2022-11-17 23:15:00,,0832.7,5.00,0.00,22.4,21.2,00.0,31.2,24.2,11.2,0000.0,0007.86,0005.51,0005.37
2022-11-17 23:16:00,,0832.7,5.00,0.00,22.4,21.2,00.0,31.2,24.2,11.2,0000.0,0008.06,0005.53,0005.37
2022-11-17 23:17:00,,0832.7,5.00,0.00,22.4,21.1,00.0,31.2,24.2,11.2,0000.0,0008.20,0005.54,0005.37
2022-11-17 23:18:00,,0832.7,5.00,0.00,22.4,21.1,00.0,31.2,24.2,11.2,0000.0,0008.27,0005.56,0005.37
2022-11-17 23:19:00,,0832.7,4.99,0.00,22.4,21.1,00.0,31.2,24.2,11.1,0000.0,0008.26,0005.56,0005.38
2022-11-17 23:20:00,,0832.7,5.00,0.00,22.4,21.1,00.0,31.2,24.2,11.1,0000.0,0008.36,0005.58,0005.40
2022-11-17 23:21:00,,0832.7,5.01,0.00,22.4,21.1,00.0,31.2,24.2,11.2,0000.0,0008.76,0005.59,0005.40
2022-11-17 23:22:00,,0832.7,5.00,0.00,22.3,21.0,00.0,31.2,24.2,11.3,0000.0,0008.72,0005.59,0005.41
2022-11-17 23:23:00,,0832.7,4.99,0.00,22.3,21.0,00.0,31.2,24.2,11.3,0000.0,0008.77,0005.61,0005.41
2022-11-17 23:24:00,,0832.7,5.00,0.00,22.3,21.0,00.0,31.2,24.2,11.3,0000.0,0008.79,0005.62,0005.42
2022-11-17 23:25:00,,0832.7,5.02,0.00,22.3,21.0,00.0,31.2,24.1,11.3,0000.0,0008.71,0005.60,0005.42
2022-11-17 23:26:00,,0832.7,4.99,0.00,22.3,21.0,00.0,31.2,24.1,11.4,0000.0,0008.71,0005.62,0005.42
2022-11-17 23:27:00,,0832.7,5.00,0.00,22.3,21.0,00.0,31.2,24.1,11.4,0000.0,0008.55,0005.64,0005.43
2022-11-17 23:28:00,,0832.7,4.99,0.00,22.3,21.0,00.0,31.2,24.1,11.4,0000.0,0008.48,0005.65,0005.45
2022-11-17 23:29:00,,0832.7,5.00,0.00,22.3,21.0,00.0,31.2,24.1,11.4,0000.0,0008.69,0005.63,0005.46
2022-11-17 23:30:00,,0832.7,5.00,0.00,22.3,21.0,00.0,31.2,24.1,11.4,0000.0,0008.78,0005.65,0005.46
2022-11-17 23:31:00,,0832.7,4.99,0.00,22.3,21.0,00.0,31.2,24.1,11.4,0000.0,0008.77,0005.66,0005.46
2022-11-17 23:32:00,,0832.7,5.01,0.00,22.3,20.9,00.0,31.2,24.1,11.4,0000.0,0008.31,0005.65,0005.46
2022-11-17 23:33:00,,0832.7,4.99,0.00,22.3,20.9,00.0,31.2,24.1,11.4,0000.0,0008.31,0005.65,0005.45
2022-11-17 23:34:00,,0832.7,5.00,0.00,22.3,20.9,00.0,31.2,24.1,11.4,0000.0,0008.26,0005.63,0005.45
2022-11-17 23:35:00,,0832.7,4.99,0.00,22.3,20.9,00.0,31.2,24.1,11.4,0000.0,0008.29,0005.64,0005.46
2022-11-17 23:36:00,,0832.7,4.99,0.00,22.3,20.9,00.0,31.2,24.1,11.3,0000.0,0008.36,0005.66,0005.47
2022-11-17 23:37:00,,0832.8,4.99,0.00,22.3,20.9,00.0,31.1,24.0,11.3,0000.0,0008.37,0005.66,0005.47
2022-11-17 23:38:00,,0832.8,5.00,0.00,22.2,20.9,00.0,31.1,24.1,11.3,0000.0,0008.31,0005.65,0005.47
2022-11-17 23:39:00,,0832.7,5.01,0.00,22.3,21.5,00.0,31.1,24.2,11.3,0000.0,0008.32,0005.67,0005.48
2022-11-17 23:40:00,,0832.8,5.00,0.00,22.4,22.2,00.0,31.1,24.4,11.2,0000.0,0007.96,0005.67,0005.48
2022-11-17 23:41:00,,0832.7,4.99,0.00,22.5,22.1,00.0,31.2,24.4,11.2,0000.0,0007.91,0005.66,0005.48
2022-11-17 23:42:00,,0832.7,5.00,0.00,22.5,21.9,00.0,31.2,24.4,11.1,0000.0,0007.90,0005.66,0005.48
2022-11-17 23:43:00,,0832.7,5.00,0.00,22.4,21.7,00.0,31.2,24.3,11.1,0000.0,0007.92,0005.67,0005.49
2022-11-17 23:44:00,,0832.7,4.99,0.00,22.4,21.5,00.0,31.3,24.3,11.1,0000.0,0007.95,0005.69,0005.51
2022-11-17 23:45:00,,0832.7,5.00,0.00,22.4,21.4,00.0,31.3,24.3,11.1,0000.0,0007.98,0005.72,0005.54
2022-11-17 23:46:00,,0832.8,5.01,0.00,22.4,21.4,00.0,31.3,24.3,11.1,0000.0,0007.99,0005.73,0005.55
2022-11-17 23:47:00,,0832.7,4.98,0.00,22.4,21.3,00.0,31.3,24.3,11.1,0000.0,0008.01,0005.75,0005.55
2022-11-17 23:48:00,,0832.8,5.02,0.00,22.4,21.3,00.0,31.3,24.3,11.0,0000.0,0007.99,0005.75,0005.57
2022-11-17 23:49:00,,0832.7,5.00,0.00,22.4,21.2,00.0,31.3,24.3,11.0,0000.0,0008.02,0005.75,0005.58
2022-11-17 23:50:00,,0832.8,5.00,0.00,22.4,21.2,00.0,31.3,24.3,11.0,0000.0,0008.08,0005.78,0005.59
2022-11-17 23:51:00,,0832.8,4.99,0.00,22.4,21.2,00.0,31.3,24.2,11.1,0000.0,0008.16,0005.80,0005.60
2022-11-17 23:52:00,,0832.8,4.99,0.00,22.4,21.1,00.0,31.3,24.2,11.1,0000.0,0008.21,0005.82,0005.60
2022-11-17 23:53:00,,0832.8,5.00,0.00,22.4,21.1,00.0,31.3,24.2,11.1,0000.0,0008.18,0005.81,0005.60
2022-11-17 23:54:00,,0832.7,5.00,0.00,22.4,21.1,00.0,31.3,24.2,11.1,0000.0,0008.13,0005.78,0005.58
2022-11-17 23:55:00,,0832.7,5.00,0.00,22.4,21.1,00.0,31.3,24.2,11.1,0000.0,0008.13,0005.76,0005.55
2022-11-17 23:56:00,,0832.8,5.01,0.00,22.4,21.0,00.0,31.3,24.2,11.2,0000.0,0008.24,0005.74,0005.53
2022-11-17 23:57:00,,0832.8,4.99,0.00,22.4,21.0,00.0,31.2,24.2,11.2,0000.0,0008.27,0005.71,0005.50
2022-11-17 23:58:00,,0832.8,4.99,0.00,22.3,21.0,00.0,31.2,24.1,11.2,0000.0,0008.18,0005.68,0005.48
2022-11-17 23:59:00,,0832.8,5.01,0.00,22.3,21.0,00.0,31.2,24.1,11.2,0000.0,0008.13,0005.66,0005.47
